Regional Weather Roundup
Issued by NWS

Home | Current Version | Previous Version | Graphics & Text | Print | Product List | Glossary On
Versions: 1 2 3 4 5 6 7 8 9 10 11 12 13 14 15 16 17 18 19 20 21 22 23 24 25 26 27 28 29 30 31 32 33 34 35 36 37 38 39 40 41 42 43 44 45 46 47 48 49 50
000
ASUS43 KLOT 272221
RWRIL

ILLINOIS REGIONAL WEATHER ROUNDUP
NATIONAL WEATHER SERVICE CHICAGO/ROMEOVILLE IL
500 PM CDT FRI MAR 27 2015

NOTE: "FAIR" INDICATES FEW OR NO CLOUDS BELOW 12,000 FEET WITH NO
SIGNIFICANT WEATHER AND/OR OBSTRUCTIONS TO VISIBILITY.

* THESE STATIONS ARE NOT UNDER NWS QUALITY CONTROL. THEY ALSO MAY NOT
  REPORT WEATHER SUCH AS PRECIPITATION OR FOG.

ILZ001-002-007-009-015-016-024-272300-
NORTHWEST ILLINOIS

CITY           SKY/WX    TMP DP  RH WIND       PRES   REMARKS
MOLINE         SUNNY     38   8  29 VRB5      30.16F WCI  34
STERLING*      SUNNY     36  10  35 N10       30.17S WCI  28
SAVANNA*       SUNNY     36   8  31 N9        30.17S WCI  29
$$

ILZ003-004-008-010-011-017-018-272300-
NORTH CENTRAL ILLINOIS

CITY           SKY/WX    TMP DP  RH WIND       PRES   REMARKS
ROCKFORD       SUNNY     35   6  29 N13       30.17S WCI  26
FREEPORT*      SUNNY     32   8  36 NE8       30.18S WCI  25
ROCHELLE*      SUNNY     32  10  39 N13       30.16R WCI  23
DE KALB*       SUNNY     31  11  43 N12       30.15R WCI  21
PERU*          MOSUNNY   34  10  37 N7G16     30.16S WCI  28
$$

ILZ005-006-012>014-019>023-272300-
NORTHEAST ILLINOIS

CITY           SKY/WX    TMP DP  RH WIND       PRES   REMARKS
CHICAGO-OHARE  MOSUNNY   29  13  51 NE14      30.15S WCI  18
CHICAGO-MIDWAY MOSUNNY   30  11  45 NE13      30.16S WCI  20
AURORA         SUNNY     34   8  33 N13G20    30.14S WCI  25
LANSING*       MOSUNNY   27  11  49 NE15      30.16S WCI  16
JOLIET*        SUNNY     35   7  31 N8        30.14S WCI  28
WAUKEGAN       SUNNY     26  14  60 NE14G23   30.15S WCI  14
DUPAGE AIRPORT SUNNY     34   7  32 NE10      30.13S WCI  26
KANKAKEE*      MOSUNNY   32  14  47 N10       30.14S WCI  24
WHEELING       SUNNY     28  13  53 NE16G23   30.18R WCI  16
MORRIS*        MOSUNNY   35  10  36 N7        30.14R WCI  29
ROMEOVILLE*    SUNNY     32  10  40 NE10      30.14R WCI  23
NORTHERLY ISL    N/A     27  12  53 MISG        N/A
$$

LMZ740>746-272300-
SOUTHERN LAKE MICHIGAN

STATION/POSITION SKY/WX   TEMP    WIND        PRES    VSBY  WAVE
                          AIR SEA DIR/SP/G                  HT/PER
                          (F)     (DEG/KT/KT) (MB)    (MI)  (FT/S)
HARRISON CRIB              25     360/ 19/ 22   N/A
BURNHAM HARBOR             27      10/ 15/ 19   N/A
CALUMET HARBOR             26     360/ 15/ 18 1020.4S
BURNS HARBOR               25     350/ 20     1021.7R
MICHIGAN CITY              24     340/ 24/ 30   N/A
$$

ILZ025>027-034>036-040-047-049-050-058-095>099-272300-
WEST-CENTRAL ILLINOIS

CITY           SKY/WX    TMP DP  RH WIND       PRES   REMARKS
QUINCY         SUNNY     41  13  31 N7        30.14F
GALESBURG*     SUNNY     36  10  35 N10       30.16S WCI  28
MACOMB*        SUNNY     38  11  33 NW10      30.18F WCI  30
JACKSONVILLE*  SUNNY     41  15  34 NW16      30.14S
PITTSFIELD*    FAIR      41  19  40 N10G20    30.15S
$$

ILZ028>032-037-038-041>044-048-051>054-059>061-272300-
CENTRAL ILLINOIS

CITY           SKY/WX    TMP DP  RH WIND       PRES   REMARKS
PONTIAC        SUNNY     35  14  41 NW10G20   30.15S WCI  27
BLOOMINGTON    MOSUNNY   35  13  40 NW9       30.14S WCI  28
DECATUR        SUNNY     38  12  34 N16G24    30.14R WCI  29
PEORIA         SUNNY     37  11  34 N13G18    30.16S WCI  29
LACON*         MOSUNNY   35  11  37 N6        30.16S WCI  30
LINCOLN*       SUNNY     38  12  34 N10G17    30.16R WCI  31
SPRINGFIELD    SUNNY     40  13  33 N14       30.15S
TAYLORVILLE    SUNNY     36  19  51 N20       30.14S WCI  25
$$

ILZ033-039-045-046-055>057-062-063-272300-
EAST-CENTRAL ILLINOIS

CITY           SKY/WX    TMP DP  RH WIND       PRES   REMARKS
CHAMPAIGN      SUNNY     36  10  34 N12       30.11S WCI  28
DANVILLE*      PTSUNNY   31  17  54 N10       30.09S WCI  22
RANTOUL*       SUNNY     36  10  34 NE14G20   30.12S WCI  27
MATTOON        CLOUDY    34  21  59 N16G23    30.11S WCI  24
PARIS*         PTSUNNY   32  19  57 N8        30.12S WCI  25
$$

ILZ079-100>102-272300-
SOUTHWEST ILLINOIS

CITY           SKY/WX    TMP DP  RH WIND       PRES   REMARKS
ALTON          PTSUNNY   39  14  35 NW9G17    30.15F WCI  33
BELLEVILLE     PTSUNNY   42  20  40 N13       30.14F
CAHOKIA*       PTSUNNY   41  21  44 N9        30.15F
SPARTA*        CLOUDY    38  22  53 N12       30.16S WCI  30
$$

ILZ064>066-069>071-074>076-080>082-084>086-088>090-092>094-272300-
SOUTH-CENTRAL ILLINOIS

CITY           SKY/WX    TMP DP  RH WIND       PRES   REMARKS
CARBONDALE     PTSUNNY   38  20  48 N13       30.14S WCI  30
CAIRO*         CLOUDY    39  27  61 NW20      30.14R WCI  30
EFFINGHAM*     PTSUNNY   38  15  40 NW14      30.13S WCI  29
MARION         CLOUDY    39  21  48 N17       30.15R WCI  30
MT. VERNON     CLOUDY    39  19  45 NW8       30.14R WCI  34
CENTRALIA*     CLOUDY    38  21  49 NW13G22   30.13S WCI  31
SALEM*         PTSUNNY   41  21  45 N15G21    30.13S
METROPOLIS*    CLOUDY    39  28  63 N7        30.12R WCI  34
$$

ILZ067-068-072-073-078-083-087-091-272300-
SOUTHEAST ILLINOIS

CITY           SKY/WX    TMP DP  RH WIND       PRES   REMARKS
LAWRENCEVILLE  PTSUNNY   37  20  50 N14       30.11S WCI  28
FLORA*         PTSUNNY   38  19  47 NW15      30.12S WCI  29
FAIRFIELD*     PTSUNNY   38  19  47 N14G21    30.11S WCI  30
HARRISBURG*    CLOUDY    38  20  47 NW14G20   30.14R WCI  30
ROBINSON*      PTSUNNY   35  21  55 N17       30.12S WCI  25
CARMI*         CLOUDY    39  18  42 NW14G23   30.11R WCI  30
$$

ABBREVIATIONS USED IN REMARKS
   TC - TEMPERATURE IN CELSIUS
  WCI - WIND CHILL INDEX
   HX - HEAT INDEX
  VSB - VISIBILITY
$$




USA.gov is the U.S. government's official web portal to all federal, state and local government web resources and services.